| time (UTC) | temp F | wind direction | speed knots | gust knots | rain 1hr in | rain 24hr in | rain mn in | humidity % | barometer mb |
| 20260510130150 | 63 | 43 | 3.5 | 7.0 | 0.00 | 0.00 | 0.00 | 65 | 1015.7 |
| 20260510125722 | 62 | 54 | 3.5 | 6.1 | 0.00 | 0.00 | 0.00 | 66 | 1015.4 |
| 20260510125256 | 61 | 58 | 2.6 | 4.3 | 0.00 | 0.00 | 0.00 | 70 | 1015.4 |
| 20260510124617 | 60 | 45 | 1.7 | 3.5 | 0.00 | 0.00 | 0.00 | 74 | 1015.4 |
| 20260510123510 | 59 | 46 | 2.6 | 3.5 | 0.00 | 0.00 | 0.00 | 76 | 1015.4 |
| 20260510122830 | 58 | 66 | 1.7 | 4.3 | 0.00 | 0.00 | 0.00 | 78 | 1015.4 |
| 20260510122150 | 58 | 57 | 2.6 | 7.0 | 0.00 | 0.00 | 0.00 | 78 | 1015.4 |
| 20260510121510 | 57 | 46 | 3.5 | 7.0 | 0.00 | 0.00 | 0.00 | 80 | 1015.4 |
| 20260510120830 | 57 | 49 | 1.7 | 3.5 | 0.00 | 0.00 | 0.00 | 80 | 1015.1 |
| 20260510120150 | 56 | 56 | 2.6 | 3.5 | 0.00 | 0.00 | 0.00 | 80 | 1015.1 |
| 20260510115723 | 56 | 51 | 1.7 | 3.5 | 0.00 | 0.00 | 0.00 | 80 | 1015.1 |
| 20260510115044 | 56 | 50 | 1.7 | 3.5 | 0.00 | 0.00 | 0.00 | 81 | 1015.1 |
| 20260510114150 | 56 | 58 | 1.7 | 2.6 | 0.00 | 0.00 | 0.00 | 80 | 1015.1 |
| 20260510113720 | 56 | 57 | 1.7 | 2.6 | 0.00 | 0.00 | 0.00 | 81 | 1015.1 |
| 20260510113040 | 56 | 56 | 0.9 | 2.6 | 0.00 | 0.00 | 0.00 | 81 | 1014.7 |
| 20260510112401 | 56 | 50 | 0.9 | 2.6 | 0.00 | 0.00 | 0.00 | 81 | 1014.7 |
| 20260510111510 | 56 | 47 | 0.9 | 2.6 | 0.00 | 0.00 | 0.00 | 81 | 1014.7 |
| 20260510110830 | 56 | 61 | 0.9 | 1.7 | 0.00 | 0.00 | 0.00 | 81 | 1014.7 |
| 20260510110150 | 55 | 68 | 0.9 | 1.7 | 0.00 | 0.00 | 0.00 | 81 | 1014.7 |
| 20260510105724 | 55 | 70 | 0.9 | 1.7 | 0.00 | 0.00 | 0.00 | 80 | 1014.4 |
| 20260510104829 | 55 | 57 | 0.9 | 3.5 | 0.00 | 0.00 | 0.00 | 80 | 1014.7 |
| 20260510104150 | 55 | 59 | 1.7 | 3.5 | 0.00 | 0.00 | 0.00 | 80 | 1014.4 |
| 20260510103720 | 55 | 56 | 1.7 | 2.6 | 0.00 | 0.00 | 0.00 | 81 | 1014.4 |
| 20260510102830 | 55 | 59 | 1.7 | 2.6 | 0.00 | 0.00 | 0.00 | 80 | 1014.0 |
| 20260510102150 | 55 | 60 | 1.7 | 2.6 | 0.00 | 0.00 | 0.00 | 80 | 1014.4 |
| 20260510101510 | 55 | 56 | 1.7 | 2.6 | 0.00 | 0.00 | 0.00 | 80 | 1014.0 |
| 20260510100830 | 55 | 84 | 1.7 | 1.7 | 0.00 | 0.00 | 0.00 | 79 | 1014.0 |
| 20260510100150 | 55 | 4 | 0.9 | 1.7 | 0.00 | 0.00 | 0.00 | 80 | 1013.7 |
| 20260510095719 | 55 | 37 | 0.9 | 2.6 | 0.00 | 0.00 | 0.00 | 80 | 1013.7 |
| 20260510095040 | 55 | 46 | 1.7 | 2.6 | 0.00 | 0.00 | 0.00 | 80 | 1013.7 |
| 20260510094150 | 55 | 43 | 1.7 | 2.6 | 0.00 | 0.00 | 0.00 | 79 | 1013.3 |
| 20260510093510 | 55 | 55 | 1.7 | 2.6 | 0.00 | 0.00 | 0.00 | 79 | 1013.3 |
| 20260510093042 | 55 | 64 | 1.7 | 2.6 | 0.00 | 0.00 | 0.00 | 79 | 1013.3 |
| 20260510092403 | 55 | 47 | 1.7 | 2.6 | 0.00 | 0.00 | 0.00 | 79 | 1013.3 |
| 20260510091510 | 56 | 63 | 1.7 | 2.6 | 0.00 | 0.00 | 0.00 | 77 | 1013.7 |
| 20260510091044 | 57 | 42 | 0.9 | 1.7 | 0.00 | 0.00 | 0.00 | 75 | 1013.7 |
| 20260510090359 | 56 | 34 | 1.7 | 1.7 | 0.00 | 0.00 | 0.00 | 75 | 1013.7 |
| 20260510085510 | 56 | 61 | 0.9 | 2.6 | 0.00 | 0.00 | 0.00 | 75 | 1013.7 |
| 20260510084830 | 56 | 41 | 1.7 | 3.5 | 0.00 | 0.00 | 0.00 | 77 | 1013.7 |
| 20260510084150 | 55 | 70 | 1.7 | 4.3 | 0.00 | 0.00 | 0.00 | 79 | 1013.7 |
| 20260510083510 | 55 | 48 | 2.6 | 7.0 | 0.00 | 0.00 | 0.00 | 79 | 1013.7 |
| 20260510082830 | 54 | 44 | 3.5 | 7.0 | 0.00 | 0.00 | 0.00 | 80 | 1013.7 |
| 20260510082150 | 54 | 49 | 4.3 | 7.0 | 0.00 | 0.00 | 0.00 | 81 | 1013.3 |
| 20260510081510 | 54 | 53 | 4.3 | 7.0 | 0.00 | 0.00 | 0.00 | 80 | 1013.3 |
| 20260510080830 | 54 | 49 | 3.5 | 5.2 | 0.00 | 0.00 | 0.00 | 81 | 1013.3 |
| 20260510080150 | 54 | 51 | 3.5 | 5.2 | 0.00 | 0.00 | 0.00 | 80 | 1013.0 |
| 20260510075510 | 54 | 52 | 3.5 | 6.1 | 0.00 | 0.00 | 0.00 | 80 | 1013.0 |
| 20260510074830 | 54 | 52 | 4.3 | 6.1 | 0.00 | 0.00 | 0.00 | 79 | 1012.6 |
| 20260510074150 | 55 | 54 | 5.2 | 6.1 | 0.00 | 0.00 | 0.00 | 79 | 1012.6 |
| 20260510073723 | 54 | 45 | 2.6 | 5.2 | 0.00 | 0.00 | 0.00 | 79 | 1012.6 |
| 20260510072830 | 55 | 60 | 2.6 | 5.2 | 0.00 | 0.00 | 0.00 | 78 | 1012.6 |
| 20260510072617 | 55 | 54 | 3.5 | 4.3 | 0.00 | 0.00 | 0.00 | 78 | 1012.6 |
| 20260510071933 | 56 | 57 | 1.7 | 3.5 | 0.00 | 0.00 | 0.00 | 77 | 1013.0 |
| 20260510070830 | 55 | 57 | 2.6 | 4.3 | 0.00 | 0.00 | 0.00 | 78 | 1012.6 |
| 20260510070150 | 56 | 60 | 2.6 | 4.3 | 0.00 | 0.00 | 0.00 | 77 | 1012.6 |
| 20260510065510 | 56 | 60 | 2.6 | 4.3 | 0.00 | 0.00 | 0.00 | 77 | 1012.6 |
| 20260510064830 | 56 | 63 | 2.6 | 3.5 | 0.00 | 0.00 | 0.00 | 76 | 1012.6 |
| 20260510064403 | 56 | 64 | 2.6 | 4.3 | 0.00 | 0.00 | 0.00 | 76 | 1013.0 |
| 20260510063510 | 56 | 62 | 2.6 | 5.2 | 0.00 | 0.00 | 0.00 | 75 | 1013.0 |
| 20260510063257 | 57 | 65 | 3.5 | 5.2 | 0.00 | 0.00 | 0.00 | 74 | 1013.0 |
| 20260510062150 | 56 | 45 | 2.6 | 4.3 | 0.00 | 0.00 | 0.00 | 76 | 1013.0 |
| 20260510061720 | 57 | 60 | 2.6 | 3.5 | 0.00 | 0.00 | 0.00 | 74 | 1013.0 |
| 20260510060830 | 57 | 52 | 2.6 | 3.5 | 0.00 | 0.00 | 0.00 | 73 | 1013.0 |
| 20260510060150 | 58 | 51 | 2.6 | 3.5 | 0.00 | 0.00 | 0.00 | 72 | 1013.0 |
| 20260510055935 | 58 | 47 | 2.6 | 3.5 | 0.00 | 0.00 | 0.00 | 72 | 1013.0 |
| 20260510054830 | 58 | 49 | 2.6 | 3.5 | 0.00 | 0.00 | 0.00 | 70 | 1013.0 |
| 20260510054616 | 59 | 48 | 1.7 | 2.6 | 0.00 | 0.00 | 0.00 | 68 | 1013.0 |
| 20260510053510 | 60 | 291 | 0.9 | 2.6 | 0.00 | 0.00 | 0.00 | 64 | 1013.0 |
| 20260510052830 | 62 | 67 | 0.9 | 4.3 | 0.00 | 0.00 | 0.00 | 62 | 1013.0 |
| 20260510052613 | 63 | 319 | 1.7 | 5.2 | 0.00 | 0.00 | 0.00 | 57 | 1013.0 |
| 20260510051721 | 60 | 290 | 2.6 | 5.2 | 0.00 | 0.00 | 0.00 | 63 | 1013.0 |
| 20260510050830 | 59 | 165 | 0.9 | 3.5 | 0.00 | 0.00 | 0.00 | 68 | 1013.0 |
| 20260510050150 | 57 | 39 | 1.7 | 4.3 | 0.00 | 0.00 | 0.00 | 73 | 1012.6 |
| 20260510045510 | 57 | 53 | 2.6 | 4.3 | 0.00 | 0.00 | 0.00 | 75 | 1012.6 |
| 20260510044830 | 57 | 50 | 2.6 | 4.3 | 0.00 | 0.00 | 0.00 | 75 | 1012.6 |
| 20260510044404 | 57 | 58 | 2.6 | 5.2 | 0.00 | 0.00 | 0.00 | 76 | 1012.6 |
| 20260510043510 | 57 | 51 | 2.6 | 5.2 | 0.00 | 0.00 | 0.00 | 76 | 1012.3 |
| 20260510042830 | 57 | 50 | 3.5 | 4.3 | 0.00 | 0.00 | 0.00 | 75 | 1012.3 |
| 20260510042150 | 57 | 52 | 2.6 | 5.2 | 0.00 | 0.00 | 0.00 | 75 | 1012.6 |
| 20260510041510 | 57 | 53 | 3.5 | 5.2 | 0.00 | 0.00 | 0.00 | 76 | 1012.3 |
| 20260510040830 | 57 | 50 | 2.6 | 4.3 | 0.00 | 0.00 | 0.00 | 76 | 1012.3 |
| 20260510040150 | 58 | 55 | 2.6 | 4.3 | 0.00 | 0.00 | 0.00 | 76 | 1012.3 |
| 20260510035724 | 58 | 52 | 2.6 | 4.3 | 0.00 | 0.00 | 0.00 | 76 | 1012.6 |
| 20260510034830 | 58 | 55 | 3.5 | 4.3 | 0.00 | 0.00 | 0.00 | 76 | 1012.6 |
| 20260510034400 | 58 | 55 | 3.5 | 4.3 | 0.00 | 0.00 | 0.00 | 76 | 1012.6 |
| 20260510033510 | 58 | 55 | 3.5 | 4.3 | 0.00 | 0.00 | 0.00 | 75 | 1012.3 |
| 20260510032830 | 59 | 62 | 2.6 | 3.5 | 0.00 | 0.00 | 0.00 | 74 | 1012.3 |
| 20260510032402 | 59 | 47 | 0.9 | 2.6 | 0.00 | 0.00 | 0.00 | 72 | 1012.3 |
| 20260510031510 | 60 | 56 | 1.7 | 3.5 | 0.00 | 0.00 | 0.00 | 70 | 1012.3 |
| 20260510031043 | 60 | 51 | 2.6 | 3.5 | 0.00 | 0.00 | 0.00 | 72 | 1011.9 |
| 20260510030150 | 61 | 58 | 2.6 | 4.3 | 0.00 | 0.00 | 0.00 | 70 | 1011.9 |
| 20260510025719 | 60 | 52 | 2.6 | 4.3 | 0.00 | 0.00 | 0.00 | 71 | 1011.9 |
| 20260510025040 | 61 | 53 | 2.6 | 3.5 | 0.00 | 0.00 | 0.00 | 70 | 1011.6 |
| 20260510024400 | 61 | 67 | 2.6 | 3.5 | 0.00 | 0.00 | 0.00 | 69 | 1011.6 |
| 20260510023721 | 62 | 59 | 1.7 | 2.6 | 0.00 | 0.00 | 0.00 | 68 | 1011.6 |
| 20260510022830 | 62 | 49 | 1.7 | 2.6 | 0.00 | 0.00 | 0.00 | 66 | 1011.2 |
| 20260510022150 | 62 | 65 | 1.7 | 4.3 | 0.00 | 0.00 | 0.00 | 66 | 1011.2 |
| 20260510021510 | 63 | 57 | 2.6 | 4.3 | 0.00 | 0.00 | 0.00 | 66 | 1011.2 |
| 20260510021044 | 64 | 52 | 3.5 | 4.3 | 0.00 | 0.00 | 0.00 | 65 | 1010.9 |
| 20260510020150 | 64 | 57 | 2.6 | 3.5 | 0.00 | 0.00 | 0.00 | 62 | 1010.9 |
| 20260510015510 | 65 | 63 | 2.6 | 4.3 | 0.00 | 0.00 | 0.00 | 61 | 1010.9 |
| 20260510014830 | 66 | 56 | 1.7 | 3.5 | 0.00 | 0.00 | 0.00 | 59 | 1010.9 |
| 20260510014150 | 67 | 49 | 1.7 | 2.6 | 0.00 | 0.00 | 0.00 | 56 | 1010.9 |
| 20260510013510 | 68 | 53 | 0.9 | 2.6 | 0.00 | 0.00 | 0.00 | 55 | 1010.5 |
| 20260510012830 | 69 | 49 | 0.9 | 2.6 | 0.00 | 0.00 | 0.00 | 53 | 1010.5 |
| 20260510012150 | 71 | 65 | 0.9 | 1.7 | 0.00 | 0.00 | 0.00 | 48 | 1010.5 |
| 20260510011510 | 74 | 359 | 0.9 | 1.7 | 0.00 | 0.00 | 0.00 | 43 | 1010.5 |
| 20260510011039 | 75 | 260 | 0.9 | 2.6 | 0.00 | 0.00 | 0.00 | 38 | 1010.5 |
| 20260510010400 | 75 | 245 | 1.7 | 2.6 | 0.00 | 0.00 | 0.00 | 37 | 1010.5 |
| 20260510005510 | 76 | 248 | 0.9 | 5.2 | 0.00 | 0.00 | 0.00 | 36 | 1010.5 |
| 20260510004830 | 77 | 245 | 2.6 | 5.2 | 0.00 | 0.00 | 0.00 | 35 | 1010.5 |
| 20260510004402 | 78 | 255 | 0.9 | 5.2 | 0.00 | 0.00 | 0.00 | 33 | 1010.5 |
| 20260510003510 | 78 | 254 | 1.7 | 5.2 | 0.00 | 0.00 | 0.00 | 33 | 1010.5 |
| 20260510003043 | 79 | 247 | 2.6 | 7.0 | 0.00 | 0.00 | 0.00 | 32 | 1010.2 |
| 20260510002150 | 79 | 249 | 1.7 | 5.2 | 0.00 | 0.00 | 0.00 | 32 | 1010.2 |
| 20260510001510 | 80 | 230 | 3.5 | 5.2 | 0.00 | 0.00 | 0.00 | 30 | 1010.2 |
| 20260510001040 | 81 | 242 | 2.6 | 4.3 | 0.00 | 0.00 | 0.00 | 29 | 1010.2 |
| 20260510000150 | 81 | 259 | 1.7 | 6.1 | 0.00 | 0.00 | 0.00 | 30 | 1010.2 |
| 20260509235510 | 81 | 242 | 4.3 | 6.1 | 0.00 | 0.00 | 0.00 | 29 | 1010.2 |
| 20260509234830 | 82 | 261 | 1.7 | 5.2 | 0.00 | 0.00 | 0.00 | 28 | 1010.2 |
| 20260509234150 | 82 | 261 | 3.5 | 5.2 | 0.00 | 0.00 | 0.00 | 28 | 1010.2 |
| 20260509233510 | 82 | 246 | 1.7 | 6.1 | 0.00 | 0.00 | 0.00 | 27 | 1010.2 |
| 20260509232830 | 82 | 274 | 1.7 | 7.0 | 0.00 | 0.00 | 0.00 | 28 | 1010.2 |
| 20260509232150 | 82 | 281 | 3.5 | 7.0 | 0.00 | 0.00 | 0.00 | 26 | 1010.2 |
| 20260509231510 | 82 | 283 | 2.6 | 7.8 | 0.00 | 0.00 | 0.00 | 26 | 1010.2 |
| 20260509230830 | 82 | 221 | 0.9 | 5.2 | 0.00 | 0.00 | 0.00 | 24 | 1010.2 |
| 20260509230150 | 82 | 143 | 1.7 | 5.2 | 0.00 | 0.00 | 0.00 | 24 | 1010.2 |
| 20260509225935 | 82 | 181 | 2.6 | 7.0 | 0.00 | 0.00 | 0.00 | 24 | 1010.2 |
| 20260509224830 | 82 | 176 | 3.5 | 7.0 | 0.00 | 0.00 | 0.00 | 24 | 1010.2 |
| 20260509224150 | 82 | 135 | 2.6 | 8.7 | 0.00 | 0.00 | 0.00 | 24 | 1009.8 |
| 20260509223510 | 82 | 149 | 5.2 | 8.7 | 0.00 | 0.00 | 0.00 | 23 | 1009.8 |
| 20260509222830 | 83 | 171 | 4.3 | 7.8 | 0.00 | 0.00 | 0.00 | 24 | 1009.8 |
| 20260509222613 | 83 | 103 | 2.6 | 6.1 | 0.00 | 0.00 | 0.00 | 23 | 1009.8 |
| 20260509221510 | 84 | 75 | 0.9 | 5.2 | 0.00 | 0.00 | 0.00 | 21 | 1009.8 |
| 20260509221041 | 83 | 347 | 2.6 | 5.2 | 0.00 | 0.00 | 0.00 | 22 | 1009.8 |
| 20260509220150 | 82 | 168 | 0.9 | 6.1 | 0.00 | 0.00 | 0.00 | 24 | 1009.8 |
| 20260509215723 | 82 | 276 | 2.6 | 6.1 | 0.00 | 0.00 | 0.00 | 23 | 1009.8 |
| 20260509214830 | 82 | 291 | 1.7 | 5.2 | 0.00 | 0.00 | 0.00 | 23 | 1009.8 |
| 20260509214150 | 82 | 262 | 3.5 | 7.8 | 0.00 | 0.00 | 0.00 | 25 | 1009.8 |
| 20260509213933 | 82 | 299 | 3.5 | 6.1 | 0.00 | 0.00 | 0.00 | 23 | 1009.8 |
| 20260509212830 | 83 | 222 | 1.7 | 7.8 | 0.00 | 0.00 | 0.00 | 22 | 1009.8 |
| 20260509212150 | 85 | 231 | 0.9 | 4.3 | 0.00 | 0.00 | 0.00 | 21 | 1009.8 |
| 20260509211721 | 84 | 290 | 2.6 | 4.3 | 0.00 | 0.00 | 0.00 | 22 | 1009.8 |
| 20260509210830 | 83 | 56 | 0.9 | 6.1 | 0.00 | 0.00 | 0.00 | 22 | 1009.8 |
| 20260509210150 | 82 | 7 | 2.6 | 6.1 | 0.00 | 0.00 | 0.00 | 23 | 1010.2 |
| 20260509205510 | 82 | 29 | 3.5 | 6.1 | 0.00 | 0.00 | 0.00 | 24 | 1010.2 |
| 20260509204830 | 82 | 4 | 1.7 | 4.3 | 0.00 | 0.00 | 0.00 | 23 | 1010.2 |
| 20260509204150 | 83 | 4 | 0.9 | 4.3 | 0.00 | 0.00 | 0.00 | 24 | 1010.5 |
| 20260509203510 | 83 | 286 | 2.6 | 4.3 | 0.00 | 0.00 | 0.00 | 23 | 1010.5 |
| 20260509202830 | 82 | 201 | 0.9 | 5.2 | 0.00 | 0.00 | 0.00 | 23 | 1010.5 |
| 20260509202150 | 83 | 232 | 1.7 | 7.0 | 0.00 | 0.00 | 0.00 | 22 | 1010.5 |
| 20260509201510 | 84 | 275 | 3.5 | 7.0 | 0.00 | 0.00 | 0.00 | 22 | 1010.5 |
| 20260509200830 | 83 | 254 | 1.7 | 3.5 | 0.00 | 0.00 | 0.00 | 22 | 1010.5 |
| 20260509200403 | 82 | 277 | 0.9 | 7.8 | 0.00 | 0.00 | 0.00 | 22 | 1010.9 |
| 20260509195510 | 82 | 304 | 3.5 | 10.4 | 0.00 | 0.00 | 0.00 | 23 | 1010.9 |
| 20260509194830 | 83 | 326 | 4.3 | 10.4 | 0.00 | 0.00 | 0.00 | 22 | 1010.9 |
| 20260509194150 | 84 | 279 | 1.7 | 8.7 | 0.00 | 0.00 | 0.00 | 22 | 1010.9 |
| 20260509193510 | 83 | 4 | 1.7 | 4.3 | 0.00 | 0.00 | 0.00 | 22 | 1010.9 |
| 20260509192830 | 81 | 105 | 1.7 | 6.1 | 0.00 | 0.00 | 0.00 | 22 | 1010.9 |
| 20260509192150 | 81 | 60 | 2.6 | 10.4 | 0.00 | 0.00 | 0.00 | 22 | 1010.9 |
| 20260509191510 | 82 | 306 | 6.1 | 14.8 | 0.00 | 0.00 | 0.00 | 24 | 1010.9 |
| 20260509190830 | 82 | 275 | 7.8 | 14.8 | 0.00 | 0.00 | 0.00 | 25 | 1010.9 |
| 20260509190150 | 83 | 291 | 2.6 | 5.2 | 0.00 | 0.00 | 0.00 | 22 | 1011.2 |
| 20260509185933 | 82 | 204 | 1.7 | 7.8 | 0.00 | 0.00 | 0.00 | 22 | 1011.2 |
| 20260509185040 | 81 | 314 | 6.1 | 11.3 | 0.00 | 0.00 | 0.00 | 23 | 1011.2 |
| 20260509184150 | 82 | 313 | 4.3 | 8.7 | 0.00 | 0.00 | 0.00 | 25 | 1010.9 |
| 20260509183510 | 81 | 323 | 2.6 | 10.4 | 0.00 | 0.00 | 0.00 | 23 | 1010.9 |
| 20260509183042 | 81 | 287 | 3.5 | 10.4 | 0.00 | 0.00 | 0.00 | 24 | 1010.9 |
| 20260509182403 | 80 | 259 | 3.5 | 13.0 | 0.00 | 0.00 | 0.00 | 23 | 1010.9 |
| 20260509181510 | 80 | 312 | 7.0 | 12.2 | 0.00 | 0.00 | 0.00 | 23 | 1010.9 |
| 20260509180830 | 81 | 318 | 5.2 | 8.7 | 0.00 | 0.00 | 0.00 | 22 | 1011.2 |
| 20260509180400 | 82 | 333 | 2.6 | 10.4 | 0.00 | 0.00 | 0.00 | 22 | 1011.2 |
| 20260509175511 | 80 | 280 | 3.5 | 11.3 | 0.00 | 0.00 | 0.00 | 22 | 1010.9 |
| 20260509175041 | 80 | 63 | 2.6 | 11.3 | 0.00 | 0.00 | 0.00 | 22 | 1010.9 |
| 20260509174150 | 79 | 322 | 6.1 | 11.3 | 0.00 | 0.00 | 0.00 | 24 | 1011.2 |
| 20260509173510 | 80 | 314 | 4.3 | 11.3 | 0.00 | 0.00 | 0.00 | 25 | 1011.2 |
| 20260509172830 | 79 | 321 | 7.0 | 9.6 | 0.00 | 0.00 | 0.00 | 23 | 1011.2 |
| 20260509172150 | 80 | 263 | 3.5 | 8.7 | 0.00 | 0.00 | 0.00 | 25 | 1011.2 |
| 20260509171510 | 80 | 315 | 1.7 | 7.0 | 0.00 | 0.00 | 0.00 | 27 | 1011.2 |
| 20260509170830 | 79 | 309 | 3.5 | 7.8 | 0.00 | 0.00 | 0.00 | 26 | 1011.2 |
| 20260509170150 | 79 | 306 | 3.5 | 7.8 | 0.00 | 0.00 | 0.00 | 28 | 1011.2 |
| 20260509165934 | 78 | 301 | 3.5 | 10.4 | 0.00 | 0.00 | 0.00 | 27 | 1011.2 |
| 20260509165042 | 78 | 289 | 4.3 | 9.6 | 0.00 | 0.00 | 0.00 | 30 | 1011.2 |
| 20260509164402 | 77 | 323 | 3.5 | 8.7 | 0.00 | 0.00 | 0.00 | 33 | 1011.2 |
| 20260509163723 | 77 | 275 | 3.5 | 7.8 | 0.00 | 0.00 | 0.00 | 32 | 1011.6 |
| 20260509162830 | 77 | 291 | 4.3 | 8.7 | 0.00 | 0.00 | 0.00 | 34 | 1011.6 |
| 20260509162150 | 76 | 291 | 5.2 | 8.7 | 0.00 | 0.00 | 0.00 | 36 | 1011.2 |
| 20260509161720 | 76 | 321 | 3.5 | 7.0 | 0.00 | 0.00 | 0.00 | 38 | 1011.6 |
| 20260509161040 | 75 | 330 | 4.3 | 7.0 | 0.00 | 0.00 | 0.00 | 39 | 1011.2 |
| 20260509160150 | 75 | 330 | 3.5 | 7.0 | 0.00 | 0.00 | 0.00 | 39 | 1011.6 |
| 20260509155510 | 74 | 322 | 3.5 | 9.6 | 0.00 | 0.00 | 0.00 | 40 | 1011.6 |
| 20260509154830 | 74 | 314 | 6.1 | 9.6 | 0.00 | 0.00 | 0.00 | 35 | 1011.2 |
| 20260509154150 | 74 | 319 | 6.1 | 9.6 | 0.00 | 0.00 | 0.00 | 39 | 1011.2 |
| 20260509153510 | 73 | 294 | 6.1 | 8.7 | 0.00 | 0.00 | 0.00 | 41 | 1011.2 |
| 20260509153039 | 73 | 308 | 6.1 | 8.7 | 0.00 | 0.00 | 0.00 | 43 | 1011.2 |
| 20260509152400 | 72 | 321 | 4.3 | 8.7 | 0.00 | 0.00 | 0.00 | 42 | 1011.2 |
| 20260509151510 | 73 | 321 | 5.2 | 7.0 | 0.00 | 0.00 | 0.00 | 43 | 1011.2 |
| 20260509151254 | 72 | 315 | 2.6 | 7.0 | 0.00 | 0.00 | 0.00 | 47 | 1011.2 |
| 20260509150150 | 71 | 0 | 4.3 | 7.8 | 0.00 | 0.00 | 0.00 | 44 | 1011.2 |
| 20260509145510 | 70 | 330 | 3.5 | 9.6 | 0.00 | 0.00 | 0.00 | 49 | 1011.2 |
| 20260509144830 | 69 | 324 | 7.0 | 9.6 | 0.00 | 0.00 | 0.00 | 47 | 1011.2 |
| 20260509144150 | 69 | 326 | 3.5 | 8.7 | 0.00 | 0.00 | 0.00 | 48 | 1011.2 |
| 20260509143510 | 69 | 331 | 5.2 | 10.4 | 0.00 | 0.00 | 0.00 | 49 | 1011.2 |
| 20260509142830 | 68 | 326 | 5.2 | 7.8 | 0.00 | 0.00 | 0.00 | 51 | 1011.2 |
| 20260509142150 | 67 | 335 | 2.6 | 8.7 | 0.00 | 0.00 | 0.00 | 54 | 1010.9 |
| 20260509141721 | 67 | 318 | 5.2 | 8.7 | 0.00 | 0.00 | 0.00 | 54 | 1010.9 |
| 20260509140830 | 66 | 313 | 4.3 | 7.8 | 0.00 | 0.00 | 0.00 | 56 | 1010.9 |
| 20260509140402 | 66 | 314 | 3.5 | 7.0 | 0.00 | 0.00 | 0.00 | 60 | 1010.5 |
| 20260509135510 | 65 | 330 | 2.6 | 8.7 | 0.00 | 0.00 | 0.00 | 60 | 1010.5 |
| 20260509134830 | 64 | 332 | 4.3 | 8.7 | 0.00 | 0.00 | 0.00 | 62 | 1010.5 |
| 20260509134150 | 64 | 337 | 3.5 | 9.6 | 0.00 | 0.00 | 0.00 | 63 | 1010.5 |
| 20260509133510 | 64 | 323 | 3.5 | 9.6 | 0.00 | 0.00 | 0.00 | 64 | 1010.5 |
| 20260509132830 | 63 | 315 | 5.2 | 9.6 | 0.00 | 0.00 | 0.00 | 68 | 1010.5 |
| 20260509132150 | 62 | 335 | 6.1 | 9.6 | 0.00 | 0.00 | 0.00 | 70 | 1010.5 |
| 20260509131510 | 62 | 331 | 3.5 | 10.4 | 0.00 | 0.00 | 0.00 | 72 | 1010.5 |